IRIDIUM 40 [+]

Last updated on April 19, 2017, 12:17 a.m. UTC

1 25041U 97069C   17107.93931766  .00035398 -10299-5  35593-3 0  9996
2 25041  86.3934  46.7296 0304418 146.7957 215.2812 15.24502246 17752

Satellite is not in orbit.